Weather History for Cape Girardeau, MO

Change the Weather History Date:

Sunday, November 25, 2012

  Actual Average Record
Temperature  
Mean Temperature 43 °F 43 °F  
Max Temperature 55 °F 52 °F 69 °F (1990)
Min Temperature 30 °F 33 °F 19 °F (2005)
Degree Days  
Heating Degree Days 22 22  
Month to date heating degree days 468 430  
Since 1 July heating degree days 813 733  
Cooling Degree Days 0 0  
Month to date cooling degree days 0 0  
Year to date cooling degree days 1784 1451  
Moisture  
Dew Point 30 °F    
Average Humidity 66    
Maximum Humidity 89    
Minimum Humidity 43    
Precipitation  
Precipitation 0.00 in 0.16 in 2.43 in (2010)
Month to date precipitation 1.24 3.65  
Year to date precipitation 25.20 41.77  
Sea Level Pressure  
Sea Level Pressure 30.03 in    
Wind  
Wind Speed 7 mph (SSW)    
Max Wind Speed 14 mph    
Max Gust Speed 20 mph    
Visibility 10 miles    
Events      
T = Trace of Precipitation, MM = Missing Value Source: NWS Daily Summary

Daily Weather History Graph

Daily Weather History Graph

Search for Another Location

Airport:

Trip Planner

Search our weather history database for the weather conditions in past years. The results will help you decide how hot, cold, wet, or windy it might be!

Date:

Astronomy

Nov. 25, 2012 Rise Set
Actual Time 6:48 AM CST 4:42 PM CST
Civil Twilight 6:19 AM CST 5:10 PM CST
Nautical Twilight 5:47 AM CST 5:42 PM CST
Astronomical Twilight 5:16 AM CST 6:14 PM CST
Moon 2:57 PM CST (11/25) 4:04 AM CST (11/25)
Length of Visible Light 10h 51m
Length of Day
9h 54m
Waxing Gibbous, 93% of the Moon is Illuminated
Nov 25
Waxing Gibbous
Nov 28
Full
Dec 6
Last Quarter
Dec 13
New
Dec 19
First Quarter

Hourly Weather History & Observations

Time (CST) Temp. Windchill Dew Point Humidity Pressure Visibility Wind Dir Wind Speed Gust Speed Precip Events Conditions
12:53 AM 33.1 °F 26.1 °F 24.1 °F 70% 30.11 in 10.0 mi SSW 8.1 mph - N/A   Clear
1:53 AM 32.0 °F 26.4 °F 24.1 °F 73% 30.11 in 10.0 mi SSW 5.8 mph - N/A   Clear
2:53 AM 33.1 °F 26.1 °F 24.1 °F 70% 30.11 in 10.0 mi SW 8.1 mph - N/A   Clear
3:53 AM 33.1 °F 26.9 °F 25.0 °F 72% 30.09 in 10.0 mi SSW 6.9 mph - N/A   Clear
4:53 AM 33.1 °F 27.7 °F 25.0 °F 72% 30.07 in 10.0 mi SSW 5.8 mph - N/A   Clear
5:53 AM 33.1 °F 26.9 °F 25.0 °F 72% 30.07 in 10.0 mi SSW 6.9 mph - N/A   Clear
6:53 AM 33.1 °F 26.1 °F 25.0 °F 72% 30.06 in 10.0 mi South 8.1 mph - N/A   Clear
7:53 AM 36.0 °F 28.0 °F 26.1 °F 67% 30.06 in 10.0 mi SSW 11.5 mph - N/A   Clear
8:53 AM 39.0 °F 31.4 °F 28.0 °F 65% 30.07 in 10.0 mi SSW 12.7 mph - N/A   Clear
9:53 AM 42.1 °F 36.6 °F 30.0 °F 62% 30.07 in 10.0 mi SSW 9.2 mph - N/A   Clear
10:53 AM 45.0 °F 42.6 °F 30.0 °F 56% 30.05 in 10.0 mi SSW 4.6 mph - N/A   Clear
11:53 AM 48.9 °F - 32.0 °F 52% 30.01 in 10.0 mi SSW 10.4 mph - N/A   Clear
12:53 PM 52.0 °F - 33.1 °F 49% 29.98 in 10.0 mi SW 11.5 mph - N/A   Clear
1:53 PM 53.1 °F - 34.0 °F 48% 29.96 in 10.0 mi SSW 10.4 mph - N/A   Clear
2:53 PM 55.0 °F - 34.0 °F 45% 29.96 in 10.0 mi SSW 10.4 mph - N/A   Clear
3:53 PM 54.0 °F - 35.1 °F 49% 29.96 in 10.0 mi South 10.4 mph - N/A   Clear
4:53 PM 50.0 °F - 35.1 °F 57% 29.96 in 10.0 mi South 5.8 mph - N/A   Clear
5:53 PM 46.9 °F - 34.0 °F 61% 29.98 in 10.0 mi SSW 5.8 mph - N/A   Clear
6:53 PM 45.0 °F 43.5 °F 34.0 °F 65% 29.99 in 10.0 mi SSE 3.5 mph - N/A   Clear
7:53 PM 41.0 °F 39.0 °F 34.0 °F 76% 30.01 in 10.0 mi South 3.5 mph - N/A   Clear
8:53 PM 37.9 °F - 33.1 °F 83% 30.01 in 10.0 mi Calm Calm - N/A   Clear
9:53 PM 36.0 °F - 32.0 °F 86% 30.03 in 10.0 mi Calm Calm - N/A   Clear
10:53 PM 37.0 °F - 30.9 °F 79% 30.04 in 10.0 mi Calm Calm - N/A   Clear